Lerna, IL

5:21 PM CDT on September 27, 2016 (GMT -0500)
Coles County Memorial

Weather History for KMTO - March, 2014

Change the Weather History Date:

Wednesday, March 12, 2014

  Actual Average Record
Temperature  
Mean Temperature 31 °F 41 °F  
Max Temperature 38 °F 51 °F 78 °F (1990)
Min Temperature 23 °F 32 °F 3 °F (1960)
Degree Days  
Heating Degree Days 34 24  
Month to date heating degree days 403 312  
Since 1 July heating degree days 5250 4516  
Cooling Degree Days 0 0  
Month to date cooling degree days 0 0  
Year to date cooling degree days 0 0  
Moisture  
Dew Point 28 °F    
Average Humidity 85    
Maximum Humidity 100    
Minimum Humidity 70    
Precipitation  
Precipitation 0.55 in 0.07 in 1.31 in (1961)
Month to date precipitation 0.77 0.74  
Year to date precipitation 2.70 4.72  
Sea Level Pressure  
Sea Level Pressure 29.83 in    
Wind  
Wind Speed 19 mph (North)    
Max Wind Speed 35 mph    
Max Gust Speed 48 mph    
Visibility 5 miles    
Events Fog , Rain , Snow    
T = Trace of Precipitation, MM = Missing Value Source: NWS Daily Summary

Daily Weather History Graph

Daily Weather History Graph

Search for Another Location

Airport or City:

Trip Planner

Search our weather history database for the weather conditions in past years. The results will help you decide how hot, cold, wet, or windy it might be!

Date:

Astronomy

Mar. 12, 2014 Rise Set
Actual Time 7:09 AM CDT 6:56 PM CDT
Civil Twilight 6:42 AM CDT 7:23 PM CDT
Nautical Twilight 6:11 AM CDT 7:54 PM CDT
Astronomical Twilight 5:39 AM CDT 8:26 PM CDT
Moon 3:28 PM CDT (3/12) 4:39 AM CDT (3/12)
Length of Visible Light 12h 41m
Length of Day
11h 47m
Waxing Gibbous, 85% of the Moon is Illuminated
Mar 12
Waxing Gibbous
Mar 16
Full
Mar 23
Last Quarter
Mar 30
New
Apr 7
First Quarter

Hourly Weather History & Observations

Time (CDT) Temp. Windchill Dew Point Humidity Pressure Visibility Wind Dir Wind Speed Gust Speed Precip Events Conditions
12:24 AM 39.0 °F 29.0 °F - N/A% 29.47 in 4.0 mi North 20.7 mph 27.6 mph 0.03 in Rain Rain
12:33 AM 39.0 °F 28.3 °F - N/A% 29.47 in 2.0 mi NNE 24.2 mph - 0.09 in Rain Rain
12:42 AM 39.0 °F 29.0 °F - N/A% 29.48 in 4.0 mi NNE 20.7 mph - 0.10 in Rain Rain
12:53 AM 39.0 °F 29.9 °F - N/A% 29.49 in 4.0 mi North 17.3 mph - 0.11 in Rain Rain
1:01 AM 37.9 °F 27.6 °F - N/A% 29.48 in 3.0 mi NNE 20.7 mph - 0.05 in Rain Heavy Rain
1:04 AM 37.9 °F 27.9 °F - N/A% 29.46 in 2.0 mi NNE 19.6 mph - 0.11 in Rain Heavy Rain
1:12 AM 37.9 °F 27.1 °F - N/A% 29.45 in 1.8 mi NNE 23.0 mph - 0.16 in Rain Heavy Rain
1:23 AM 37.9 °F 26.8 °F - N/A% 29.44 in 2.0 mi NE 24.2 mph 31.1 mph 0.22 in Rain Heavy Rain
1:36 AM 37.9 °F 28.2 °F - N/A% 29.44 in 1.8 mi NE 18.4 mph 27.6 mph 0.33 in Rain Heavy Rain
1:44 AM 37.9 °F 28.2 °F - N/A% 29.43 in 2.0 mi NE 18.4 mph - 0.36 in Rain Heavy Rain
1:53 AM 37.9 °F 27.9 °F - N/A% 29.45 in 3.0 mi NNE 19.6 mph - 0.37 in Rain Light Rain
2:08 AM 37.9 °F 27.6 °F - N/A% 29.47 in 2.0 mi North 20.7 mph 27.6 mph 0.03 in Rain Heavy Rain
2:27 AM 37.9 °F 26.8 °F - N/A% 29.45 in 4.0 mi NNE 24.2 mph - 0.07 in Rain Rain
2:53 AM 37.9 °F 27.3 °F - N/A% 29.43 in 8.0 mi NNE 21.9 mph 27.6 mph 0.07 in Rain Light Rain
3:53 AM 37.0 °F 24.5 °F - N/A% 29.50 in 6.0 mi North 29.9 mph 36.8 mph 0.12 in Snow Light Snow
4:53 AM 35.1 °F 22.0 °F - N/A% 29.52 in 9.0 mi North 28.8 mph 39.1 mph 0.01 in   Overcast
5:42 AM 35.1 °F 21.8 °F - N/A% 29.56 in 10.0 mi North 29.9 mph 42.6 mph 0.00 in   Overcast
5:53 AM 35.1 °F 22.0 °F - N/A% 29.57 in 10.0 mi North 28.8 mph 39.1 mph 0.00 in   Overcast
6:53 AM 33.1 °F 18.7 °F - N/A% 29.66 in 4.0 mi North 32.2 mph 40.3 mph 0.00 in Snow Light Snow
7:00 AM 33.1 °F 19.8 °F - N/A% 29.66 in 2.5 mi North 26.5 mph 40.3 mph 0.00 in Snow Light Snow
7:12 AM 33.1 °F 19.1 °F - N/A% 29.67 in 1.2 mi North 29.9 mph 36.8 mph 0.00 in Snow Light Snow
7:17 AM 32.0 °F 18.4 °F - N/A% 29.68 in 1.0 mi North 26.5 mph 36.8 mph 0.00 in Snow Light Snow
7:42 AM 32.0 °F 18.4 °F - N/A% 29.71 in 0.8 mi NNW 26.5 mph 32.2 mph 0.00 in Snow Light Snow
7:53 AM 32.0 °F 18.6 °F - N/A% 29.72 in 0.8 mi NNW 25.3 mph 34.5 mph 0.00 in Snow Light Snow
8:05 AM 32.0 °F 20.1 °F - N/A% 29.72 in 1.2 mi North 19.6 mph 34.5 mph 0.00 in Snow Light Snow
8:49 AM 30.2 °F 16.5 °F 30.2 °F 100% 29.76 in 1.0 mi North 24.2 mph 36.8 mph 0.00 in Snow Light Snow
8:53 AM 30.9 °F 17.8 °F 30.0 °F 96% 29.78 in 1.0 mi North 23.0 mph - 0.00 in Snow Light Snow
9:05 AM 30.9 °F 17.2 °F 30.0 °F 96% 29.77 in 2.0 mi NNW 25.3 mph - 0.00 in Snow Light Snow
9:15 AM 32.0 °F 18.9 °F 30.0 °F 92% 29.78 in 6.0 mi NNW 24.2 mph 34.5 mph 0.00 in Snow Light Snow
9:53 AM 30.9 °F 17.5 °F 28.0 °F 89% 29.83 in 10.0 mi North 24.2 mph 31.1 mph 0.00 in   Overcast
10:30 AM 30.9 °F 17.2 °F 28.0 °F 89% 29.84 in 10.0 mi North 25.3 mph 32.2 mph N/A   Overcast
10:53 AM 32.0 °F 17.9 °F 27.0 °F 82% 29.87 in 10.0 mi North 28.8 mph 34.5 mph N/A   Overcast
11:53 AM 33.1 °F 20.6 °F 27.0 °F 78% 29.90 in 10.0 mi North 23.0 mph 33.4 mph N/A   Overcast
12:53 PM 34.0 °F 21.8 °F 28.0 °F 79% 29.93 in 10.0 mi North 23.0 mph 32.2 mph N/A   Overcast
1:53 PM 36.0 °F 23.9 °F 28.0 °F 73% 29.95 in 10.0 mi NNW 25.3 mph 31.1 mph N/A   Overcast
2:21 PM 36.0 °F 24.4 °F 28.0 °F 73% 29.94 in 10.0 mi NNW 23.0 mph - N/A   Overcast
2:43 PM 36.0 °F 24.7 °F 27.0 °F 70% 29.95 in 10.0 mi NNW 21.9 mph - N/A   Overcast
2:53 PM 36.0 °F 25.6 °F 27.0 °F 70% 29.96 in 10.0 mi NNW 18.4 mph 27.6 mph N/A   Overcast
3:02 PM 35.1 °F 23.8 °F 26.1 °F 70% 29.95 in 10.0 mi NNW 20.7 mph 26.5 mph N/A   Overcast
3:11 PM 35.1 °F 24.1 °F 27.0 °F 72% 29.95 in 10.0 mi NNW 19.6 mph - N/A   Overcast
3:53 PM 35.1 °F 25.2 °F 28.9 °F 78% 29.99 in 9.0 mi NNW 16.1 mph - 0.00 in   Overcast
4:29 PM 33.1 °F 22.6 °F 28.0 °F 82% 29.98 in 6.0 mi NNW 16.1 mph - 0.00 in Snow Light Snow
4:34 PM 32.0 °F 20.8 °F 30.0 °F 92% 29.99 in 1.5 mi NNW 17.3 mph - 0.00 in Snow Light Snow
4:37 PM 32.0 °F 20.5 °F 30.0 °F 92% 29.99 in 0.8 mi NW 18.4 mph - 0.00 in Snow Light Snow
4:47 PM 32.0 °F 21.6 °F 28.4 °F 87% 29.99 in 2.0 mi NNW 15.0 mph - 0.00 in Snow Light Snow
4:53 PM 32.0 °F 22.1 °F 28.0 °F 85% 30.01 in 5.0 mi NNW 13.8 mph - 0.00 in Snow Light Snow
5:04 PM 32.0 °F 22.5 °F 28.9 °F 88% 29.99 in 1.8 mi NW 12.7 mph - 0.00 in Snow Light Snow
5:18 PM 30.9 °F 21.2 °F 28.0 °F 89% 30.00 in 2.0 mi NW 12.7 mph - 0.00 in Snow Light Snow
5:24 PM 30.9 °F 21.2 °F 28.9 °F 92% 30.00 in 1.5 mi NW 12.7 mph - 0.00 in Snow Light Snow
5:45 PM 30.9 °F 21.7 °F 30.0 °F 96% 30.01 in 0.5 mi NW 11.5 mph - 0.00 in Fog , Snow Snow
5:53 PM 30.9 °F 21.2 °F 30.0 °F 96% 30.04 in 0.2 mi NW 12.7 mph - 0.00 in Fog , Snow Snow
5:57 PM 30.9 °F 20.2 °F 30.0 °F 96% 30.01 in 0.5 mi NW 15.0 mph - 0.00 in Fog , Snow Snow
6:03 PM 30.9 °F 21.7 °F 30.0 °F 96% 30.02 in 2.0 mi NW 11.5 mph - 0.00 in Snow Light Snow
6:08 PM 30.9 °F 20.7 °F 30.0 °F 96% 30.02 in 6.0 mi NW 13.8 mph - 0.00 in   Overcast
6:39 PM 30.9 °F 19.4 °F 28.9 °F 92% 30.04 in 1.0 mi North 17.3 mph - 0.01 in Snow Light Snow
6:42 PM 30.0 °F 17.5 °F 28.9 °F 96% 30.04 in 0.5 mi North 19.6 mph - 0.01 in Fog , Snow Snow
6:49 PM 28.4 °F 16.6 °F 28.4 °F 100% 30.04 in 0.2 mi North 16.1 mph - 0.01 in Fog , Snow Snow
6:53 PM 28.9 °F 16.5 °F 28.0 °F 96% 30.07 in 0.8 mi North 18.4 mph - 0.01 in Snow Light Snow
6:56 PM 28.9 °F 16.9 °F 28.0 °F 96% 30.05 in 2.5 mi North 17.3 mph - 0.00 in Snow Light Snow
7:01 PM 28.9 °F 17.7 °F 27.0 °F 92% 30.05 in 9.0 mi North 15.0 mph - 0.00 in   Overcast
7:09 PM 28.9 °F 17.3 °F 26.1 °F 89% 30.05 in 10.0 mi North 16.1 mph - 0.00 in   Overcast
7:50 PM 28.4 °F 18.5 °F 26.6 °F 93% 30.07 in 10.0 mi North 11.5 mph - 0.00 in   Mostly Cloudy
7:53 PM 28.9 °F 18.6 °F 26.1 °F 89% 30.09 in 10.0 mi North 12.7 mph - 0.00 in   Mostly Cloudy
8:06 PM 28.0 °F 18.1 °F 25.0 °F 88% 30.07 in 10.0 mi North 11.5 mph - N/A   Overcast
8:53 PM 28.0 °F 19.3 °F 25.0 °F 88% 30.12 in 10.0 mi NNW 9.2 mph - N/A   Overcast
9:53 PM 28.0 °F 20.0 °F 23.0 °F 81% 30.13 in 10.0 mi NNW 8.1 mph - N/A   Overcast
10:53 PM 26.1 °F 18.4 °F 23.0 °F 88% 30.13 in 10.0 mi North 6.9 mph - N/A   Overcast
11:13 PM 28.0 °F 19.3 °F 23.0 °F 81% 30.11 in 10.0 mi NNE 9.2 mph - N/A   Overcast
11:32 PM 27.0 °F 20.5 °F 21.9 °F 81% 30.11 in 10.0 mi North 5.8 mph - N/A   Overcast
11:53 PM 26.1 °F 18.4 °F 19.9 °F 78% 30.13 in 10.0 mi North 6.9 mph - N/A   Overcast